User: anonymous   Login
Location: Poughquag
(41.6090°N, 73.6820°W)
Time: 02:19:14
(UTC-05:00)
Language:

Altair - Orbit

View from above orbital plane
View from above orbital plane
View from above satellite
View from above satellite

Ground track
Ground track

The orbit data is extracted from the following two-line orbital elements,

1    50U 60009B   20047.67898542 -.00000120 +00000-0 -32793-3 0  9994
2    50 047.2310 139.2174 0113369 322.4902 036.8018 12.20108974655350
Epoch (UTC): 16 February 2020 16:17:44
Eccentricity: 0.0113369
inclination: 47.2310°
perigee height: 1502 km
apogee height: 1682 km
right ascension of ascending node: 139.2174°
argument of perigee: 322.4902°
revolutions per day: 12.20108974
mean anomaly at epoch: 36.8018°
orbit number at epoch: 65535

The dashed part of the orbit path shows where the satellite is in the earth's shadow,  

DLR